Location: Unspecified
(0.0000°N, 0.0000°E)
Time: 19:38:49
(UTC+00:00)

Vanguard 1 Rocket - Pass Details

Date: 17 December 2017
Orbit: 652 x 4225 km, 34.3° (Epoch: 20 July)

Event Time Altitude Azimuth Distance (km) Brightness Sun altitude
Rises 20:23:54 0° 324° (NW) 6,144 11.7 -33.4°
Reaches altitude 10° 20:28:23 10° 335° (NNW) 5,625 11.3 -34.4°
Enters shadow 20:38:45 28° 10° (N) 5,160 10.8 -36.7°
